Time,TemperatureF,DewpointF,PressureIn,WindDirection,WindDirectionDegrees,WindSpeedMPH,WindSpeedGustMPH,Humidity,HourlyPrecipIn,Conditions,Clouds,dailyrainin,SoftwareType,DateUTC
2013-07-11 00:01:00,69.7,63.3,29.86,West,274,1.0,3.0,80,0.00,,-RA,0.18,VWS V14.01,2013-07-11 04:01:00,
2013-07-11 00:02:00,69.9,63.5,29.86,West,269,1.0,3.0,80,0.00,,-RA,0.18,VWS V14.01,2013-07-11 04:02:00,
2013-07-11 00:07:00,70.5,64.0,29.86,West,264,1.0,2.0,80,0.00,,-RA,0.00,VWS V14.01,2013-07-11 04:07:00,
2013-07-11 00:12:00,70.7,63.1,29.86,WSW,252,2.0,2.0,77,0.00,,-RA,0.00,VWS V14.01,2013-07-11 04:12:00,
2013-07-11 00:17:00,71.2,63.3,29.86,West,269,0.0,3.0,76,0.00,,-RA,0.00,VWS V14.01,2013-07-11 04:17:00,
2013-07-11 00:23:00,71.5,63.2,29.86,West,272,0.0,3.0,75,0.00,,-RA,0.00,VWS V14.01,2013-07-11 04:23:00,
2013-07-11 00:28:00,71.4,63.5,29.86,West,274,2.0,3.0,76,0.00,,-RA,0.00,VWS V14.01,2013-07-11 04:28:00,
2013-07-11 00:33:00,71.6,63.3,29.85,West,274,4.0,4.0,75,0.00,,FEW120,0.00,VWS V14.01,2013-07-11 04:33:00,
2013-07-11 00:38:00,71.8,63.5,29.85,WSW,250,4.0,4.0,75,0.00,,FEW120,0.00,VWS V14.01,2013-07-11 04:38:00,
2013-07-11 00:43:00,71.9,63.5,29.86,WNW,287,1.0,5.0,75,0.00,,FEW120,0.00,VWS V14.01,2013-07-11 04:43:00,
2013-07-11 00:48:00,71.8,63.8,29.85,WNW,300,1.0,5.0,76,0.00,,FEW120,0.00,VWS V14.01,2013-07-11 04:48:00,
2013-07-11 00:53:00,71.6,64.0,29.85,West,269,3.0,5.0,77,0.00,,FEW120,0.00,VWS V14.01,2013-07-11 04:53:00,
2013-07-11 00:58:00,71.6,64.0,29.85,West,267,2.0,8.0,77,0.00,,FEW120,0.00,VWS V14.01,2013-07-11 04:58:00,
2013-07-11 01:04:00,71.6,64.4,29.86,West,259,1.0,2.0,78,0.00,,FEW120,0.00,VWS V14.01,2013-07-11 05:04:00,
2013-07-11 01:09:00,71.4,64.2,29.86,WNW,290,2.0,4.0,78,0.00,,FEW120,0.00,VWS V14.01,2013-07-11 05:09:00,
2013-07-11 01:14:00,71.3,64.5,29.86,West,270,2.0,4.0,79,0.00,,FEW120,0.00,VWS V14.01,2013-07-11 05:14:00,
2013-07-11 01:19:00,71.2,64.4,29.86,West,269,3.0,4.0,79,0.00,,FEW120,0.00,VWS V14.01,2013-07-11 05:19:00,
2013-07-11 01:24:00,71.2,64.7,29.86,West,276,2.0,4.0,80,0.00,,FEW120,0.00,VWS V14.01,2013-07-11 05:24:00,
2013-07-11 01:29:00,71.1,64.6,29.86,WSW,253,0.0,4.0,80,0.00,,FEW120,0.00,VWS V14.01,2013-07-11 05:29:00,
2013-07-11 01:34:00,71.1,64.6,29.86,WNW,300,2.0,6.0,80,0.00,,CLR,0.00,VWS V14.01,2013-07-11 05:34:00,
2013-07-11 01:39:00,71.1,64.6,29.86,West,271,2.0,6.0,80,0.00,,CLR,0.00,VWS V14.01,2013-07-11 05:39:00,
2013-07-11 01:44:00,71.2,64.7,29.86,West,269,0.0,6.0,80,0.00,,CLR,0.00,VWS V14.01,2013-07-11 05:44:00,
2013-07-11 01:50:00,71.2,64.7,29.86,West,259,1.0,6.0,80,0.00,,CLR,0.00,VWS V14.01,2013-07-11 05:50:00,
2013-07-11 01:55:00,71.2,64.7,29.86,West,278,3.0,6.0,80,0.00,,CLR,0.00,VWS V14.01,2013-07-11 05:55:00,
2013-07-11 02:00:00,71.2,65.1,29.87,SW,236,0.0,6.0,81,0.00,,CLR,0.00,VWS V14.01,2013-07-11 06:00:00,
2013-07-11 02:05:00,71.1,65.0,29.87,West,266,1.0,4.0,81,0.00,,CLR,0.00,VWS V14.01,2013-07-11 06:05:00,
2013-07-11 02:10:00,71.1,65.0,29.87,NNW,334,0.0,4.0,81,0.00,,CLR,0.00,VWS V14.01,2013-07-11 06:10:00,
2013-07-11 02:15:00,71.1,65.0,29.87,NW,322,1.0,4.0,81,0.00,,CLR,0.00,VWS V14.01,2013-07-11 06:15:00,
2013-07-11 02:20:00,70.7,64.9,29.87,North,360,1.0,7.0,82,0.00,,CLR,0.00,VWS V14.01,2013-07-11 06:20:00,
2013-07-11 02:25:00,69.7,64.7,29.88,SW,234,0.0,7.0,84,0.00,,CLR,0.00,VWS V14.01,2013-07-11 06:25:00,
2013-07-11 02:30:00,69.0,64.6,29.88,NW,307,2.0,7.0,86,0.00,,CLR,0.00,VWS V14.01,2013-07-11 06:30:00,
2013-07-11 02:35:00,68.6,64.6,29.88,SW,229,1.0,3.0,87,0.00,,OVC100,0.00,VWS V14.01,2013-07-11 06:35:00,
2013-07-11 02:41:00,68.2,64.5,29.88,NNW,338,3.0,3.0,88,0.00,,OVC100,0.00,VWS V14.01,2013-07-11 06:41:00,
2013-07-11 02:46:00,67.9,64.2,29.88,NNE,15,1.0,4.0,88,0.00,,OVC100,0.00,VWS V14.01,2013-07-11 06:46:00,
2013-07-11 02:51:00,67.7,64.0,29.88,West,273,0.0,4.0,88,0.00,,OVC100,0.00,VWS V14.01,2013-07-11 06:51:00,
2013-07-11 02:56:00,67.7,63.7,29.88,West,267,1.0,4.0,87,0.00,,OVC100,0.00,VWS V14.01,2013-07-11 06:56:00,
2013-07-11 03:01:00,67.7,64.0,29.88,North,1,3.0,4.0,88,0.00,,OVC100,0.00,VWS V14.01,2013-07-11 07:01:00,
2013-07-11 03:06:00,67.7,64.0,29.88,West,277,0.0,5.0,88,0.00,,OVC100,0.00,VWS V14.01,2013-07-11 07:06:00,
2013-07-11 03:11:00,67.7,64.0,29.88,WSW,249,0.0,5.0,88,0.00,,OVC100,0.00,VWS V14.01,2013-07-11 07:11:00,
2013-07-11 03:16:00,67.7,63.7,29.88,WNW,285,1.0,5.0,87,0.00,,OVC100,0.00,VWS V14.01,2013-07-11 07:16:00,
2013-07-11 03:21:00,67.7,63.7,29.89,West,276,0.0,5.0,87,0.00,,OVC100,0.00,VWS V14.01,2013-07-11 07:21:00,
2013-07-11 03:26:00,67.7,63.4,29.89,West,278,1.0,5.0,86,0.00,,OVC100,0.00,VWS V14.01,2013-07-11 07:26:00,
2013-07-11 03:32:00,67.6,62.9,29.89,NNW,341,0.0,5.0,85,0.00,,OVC024,0.00,VWS V14.01,2013-07-11 07:32:00,
2013-07-11 03:37:00,67.6,62.9,29.89,North,5,1.0,3.0,85,0.00,,OVC024,0.00,VWS V14.01,2013-07-11 07:37:00,
2013-07-11 03:42:00,67.5,62.5,29.89,WSW,250,2.0,3.0,84,0.00,,OVC024,0.00,VWS V14.01,2013-07-11 07:42:00,
2013-07-11 03:47:00,67.4,62.4,29.89,West,259,0.0,3.0,84,0.00,,OVC024,0.00,VWS V14.01,2013-07-11 07:47:00,
2013-07-11 03:52:00,67.3,62.0,29.89,WSW,256,0.0,3.0,83,0.00,,OVC024,0.00,VWS V14.01,2013-07-11 07:52:00,
2013-07-11 03:57:00,67.2,61.2,29.89,WNW,291,0.0,6.0,81,0.00,,OVC024,0.00,VWS V14.01,2013-07-11 07:57:00,
2013-07-11 04:02:00,67.2,61.2,29.90,WSW,257,0.0,6.0,81,0.00,,OVC024,0.00,VWS V14.01,2013-07-11 08:02:00,
2013-07-11 04:07:00,67.1,60.7,29.90,WNW,283,0.0,3.0,80,0.00,,OVC024,0.00,VWS V14.01,2013-07-11 08:07:00,
2013-07-11 04:13:00,67.0,60.6,29.90,WSW,247,1.0,3.0,80,0.00,,OVC024,0.00,VWS V14.01,2013-07-11 08:13:00,
2013-07-11 04:18:00,66.8,60.4,29.90,WNW,293,0.0,3.0,80,0.00,,OVC024,0.00,VWS V14.01,2013-07-11 08:18:00,
2013-07-11 04:23:00,66.7,60.7,29.91,West,264,1.0,3.0,81,0.00,,OVC024,0.00,VWS V14.01,2013-07-11 08:23:00,
2013-07-11 04:28:00,66.6,60.9,29.91,NW,323,0.0,3.0,82,0.00,,OVC024,0.00,VWS V14.01,2013-07-11 08:28:00,
2013-07-11 04:33:00,66.5,61.2,29.91,West,266,0.0,1.0,83,0.00,,OVC036,0.00,VWS V14.01,2013-07-11 08:33:00,
2013-07-11 04:38:00,66.4,61.1,29.91,WSW,250,1.0,1.0,83,0.00,,OVC036,0.00,VWS V14.01,2013-07-11 08:38:00,
2013-07-11 04:43:00,66.2,60.9,29.91,WSW,245,0.0,3.0,83,0.00,,OVC036,0.00,VWS V14.01,2013-07-11 08:43:00,
2013-07-11 04:48:00,65.9,60.6,29.91,WSW,249,1.0,3.0,83,0.00,,OVC036,0.00,VWS V14.01,2013-07-11 08:48:00,
2013-07-11 04:53:00,65.8,60.5,29.92,West,271,2.0,3.0,83,0.00,,OVC036,0.00,VWS V14.01,2013-07-11 08:53:00,
2013-07-11 04:58:00,65.6,60.3,29.92,West,270,0.0,3.0,83,0.00,,OVC036,0.00,VWS V14.01,2013-07-11 08:58:00,
2013-07-11 05:04:00,65.5,60.2,29.92,WNW,288,1.0,1.0,83,0.00,,OVC036,0.00,VWS V14.01,2013-07-11 09:04:00,
2013-07-11 05:09:00,65.3,60.3,29.92,West,279,0.0,1.0,84,0.00,,OVC036,0.00,VWS V14.01,2013-07-11 09:09:00,
2013-07-11 05:14:00,65.1,59.8,29.92,NW,306,0.0,5.0,83,0.00,,OVC036,0.00,VWS V14.01,2013-07-11 09:14:00,
2013-07-11 05:19:00,64.9,60.0,29.93,West,279,0.0,5.0,84,0.00,,OVC036,0.00,VWS V14.01,2013-07-11 09:19:00,
2013-07-11 05:24:00,64.6,59.7,29.93,West,273,0.0,5.0,84,0.00,,OVC036,0.00,VWS V14.01,2013-07-11 09:24:00,
2013-07-11 05:29:00,64.4,59.5,29.93,West,270,0.0,5.0,84,0.00,,OVC036,0.00,VWS V14.01,2013-07-11 09:29:00,
2013-07-11 05:34:00,64.2,58.9,29.93,West,264,0.0,0.0,83,0.00,,OVC060,0.00,VWS V14.01,2013-07-11 09:34:00,
2013-07-11 05:39:00,64.0,58.7,29.93,NW,316,0.0,3.0,83,0.00,,OVC060,0.00,VWS V14.01,2013-07-11 09:39:00,
2013-07-11 05:44:00,63.9,58.6,29.93,North,4,0.0,3.0,83,0.00,,OVC060,0.00,VWS V14.01,2013-07-11 09:44:00,
2013-07-11 05:50:00,63.7,58.5,29.93,NNW,340,0.0,3.0,83,0.00,,OVC060,0.00,VWS V14.01,2013-07-11 09:50:00,
2013-07-11 05:55:00,63.5,58.6,29.93,NW,322,0.0,3.0,84,0.00,,OVC060,0.00,VWS V14.01,2013-07-11 09:55:00,
2013-07-11 06:00:00,63.4,58.5,29.94,NW,323,1.0,3.0,84,0.00,,OVC060,0.00,VWS V14.01,2013-07-11 10:00:00,
2013-07-11 06:05:00,63.4,58.5,29.94,West,278,0.0,0.0,84,0.00,,OVC060,0.00,VWS V14.01,2013-07-11 10:05:00,
2013-07-11 06:10:00,63.3,58.7,29.94,West,274,0.0,1.0,85,0.00,,OVC060,0.00,VWS V14.01,2013-07-11 10:10:00,
2013-07-11 06:15:00,63.2,58.3,29.94,WNW,286,1.0,5.0,84,0.00,,OVC060,0.00,VWS V14.01,2013-07-11 10:15:00,
2013-07-11 06:20:00,63.3,58.4,29.95,WNW,285,1.0,5.0,84,0.00,,OVC060,0.00,VWS V14.01,2013-07-11 10:20:00,
2013-07-11 06:25:00,63.3,58.7,29.95,West,266,0.0,5.0,85,0.00,,OVC060,0.00,VWS V14.01,2013-07-11 10:25:00,
2013-07-11 06:31:00,63.2,58.3,29.95,WNW,291,0.0,5.0,84,0.00,,OVC060,0.00,VWS V14.01,2013-07-11 10:31:00,
2013-07-11 06:36:00,63.2,58.6,29.95,West,281,1.0,2.0,85,0.00,,OVC055,0.00,VWS V14.01,2013-07-11 10:36:00,
2013-07-11 06:41:00,63.2,58.6,29.95,West,281,1.0,5.0,85,0.00,,OVC055,0.00,VWS V14.01,2013-07-11 10:41:00,
2013-07-11 06:46:00,63.3,58.7,29.96,West,260,0.0,5.0,85,0.00,,OVC055,0.00,VWS V14.01,2013-07-11 10:46:00,
2013-07-11 06:51:00,63.3,58.7,29.96,West,267,0.0,5.0,85,0.00,,OVC055,0.00,VWS V14.01,2013-07-11 10:51:00,
2013-07-11 06:56:00,63.4,58.8,29.96,West,276,0.0,5.0,85,0.00,,OVC055,0.00,VWS V14.01,2013-07-11 10:56:00,
2013-07-11 07:01:00,63.6,59.0,29.97,West,270,0.0,5.0,85,0.00,,OVC055,0.00,VWS V14.01,2013-07-11 11:01:00,
2013-07-11 07:06:00,63.9,59.3,29.97,West,269,1.0,1.0,85,0.00,,OVC055,0.00,VWS V14.01,2013-07-11 11:06:00,
2013-07-11 07:12:00,64.2,58.9,29.97,NNW,340,2.0,3.0,83,0.00,,OVC055,0.00,VWS V14.01,2013-07-11 11:12:00,
2013-07-11 07:17:00,64.6,59.0,29.97,West,276,0.0,3.0,82,0.00,,OVC055,0.00,VWS V14.01,2013-07-11 11:17:00,
2013-07-11 07:22:00,64.9,58.9,29.97,WNW,292,0.0,4.0,81,0.00,,OVC055,0.00,VWS V14.01,2013-07-11 11:22:00,
2013-07-11 07:27:00,65.3,59.7,29.97,West,277,0.0,4.0,82,0.00,,OVC055,0.00,VWS V14.01,2013-07-11 11:27:00,
2013-07-11 07:32:00,65.4,59.4,29.97,West,266,1.0,4.0,81,0.00,,SCT065,0.00,VWS V14.01,2013-07-11 11:32:00,
2013-07-11 07:37:00,65.5,59.2,29.97,NNW,333,0.0,5.0,80,0.00,,SCT065,0.00,VWS V14.01,2013-07-11 11:37:00,
2013-07-11 07:42:00,65.7,59.4,29.97,West,269,1.0,5.0,80,0.00,,SCT065,0.00,VWS V14.01,2013-07-11 11:42:00,
2013-07-11 07:47:00,66.0,59.7,29.97,WSW,250,0.0,5.0,80,0.00,,SCT065,0.00,VWS V14.01,2013-07-11 11:47:00,
2013-07-11 07:52:00,66.2,59.5,29.97,West,276,1.0,5.0,79,0.00,,SCT065,0.00,VWS V14.01,2013-07-11 11:52:00,
2013-07-11 07:58:00,66.4,59.7,29.97,West,276,4.0,5.0,79,0.00,,SCT065,0.00,VWS V14.01,2013-07-11 11:58:00,
2013-07-11 08:03:00,66.4,59.7,29.97,West,266,1.0,5.0,79,0.00,,SCT065,0.00,VWS V14.01,2013-07-11 12:03:00,
2013-07-11 08:08:00,66.8,60.1,29.98,NNW,343,3.0,3.0,79,0.00,,SCT065,0.00,VWS V14.01,2013-07-11 12:08:00,
2013-07-11 08:13:00,67.1,60.0,29.98,WNW,293,2.0,3.0,78,0.00,,SCT065,0.00,VWS V14.01,2013-07-11 12:13:00,
2013-07-11 08:18:00,67.1,60.0,29.98,NW,311,2.0,5.0,78,0.00,,SCT065,0.00,VWS V14.01,2013-07-11 12:18:00,
2013-07-11 08:23:00,67.3,59.8,29.98,WNW,287,1.0,5.0,77,0.00,,SCT065,0.00,VWS V14.01,2013-07-11 12:23:00,
2013-07-11 08:28:00,67.5,59.7,29.98,West,262,3.0,5.0,76,0.00,,SCT065,0.00,VWS V14.01,2013-07-11 12:28:00,
2013-07-11 08:33:00,67.6,60.5,29.98,WSW,257,1.0,1.0,78,0.00,,CLR,0.00,VWS V14.01,2013-07-11 12:33:00,
2013-07-11 08:38:00,67.7,60.2,29.98,West,273,2.0,3.0,77,0.00,,CLR,0.00,VWS V14.01,2013-07-11 12:38:00,
2013-07-11 08:44:00,67.9,60.8,29.98,West,267,0.0,3.0,78,0.00,,CLR,0.00,VWS V14.01,2013-07-11 12:44:00,
2013-07-11 08:49:00,68.3,60.8,29.98,WNW,293,1.0,3.0,77,0.00,,CLR,0.00,VWS V14.01,2013-07-11 12:49:00,
2013-07-11 08:54:00,68.6,60.4,29.99,NW,312,3.0,4.0,75,0.00,,CLR,0.00,VWS V14.01,2013-07-11 12:54:00,
2013-07-11 08:59:00,68.3,59.7,29.99,WNW,293,1.0,6.0,74,0.00,,CLR,0.00,VWS V14.01,2013-07-11 12:59:00,
2013-07-11 09:04:00,68.2,60.3,29.99,West,271,2.0,4.0,76,0.00,,CLR,0.00,VWS V14.01,2013-07-11 13:04:00,
2013-07-11 09:09:00,68.4,60.9,29.99,NE,35,0.0,6.0,77,0.00,,CLR,0.00,VWS V14.01,2013-07-11 13:09:00,
2013-07-11 09:14:00,68.6,60.0,29.99,SW,231,0.0,7.0,74,0.00,,CLR,0.00,VWS V14.01,2013-07-11 13:14:00,
2013-07-11 09:20:00,68.9,60.7,29.99,NW,322,2.0,7.0,75,0.00,,CLR,0.00,VWS V14.01,2013-07-11 13:20:00,
2013-07-11 09:25:00,69.1,60.8,29.99,NNW,335,4.0,7.0,75,0.00,,CLR,0.00,VWS V14.01,2013-07-11 13:25:00,
2013-07-11 09:30:00,68.7,60.8,29.99,NNE,12,2.0,7.0,76,0.00,,CLR,0.00,VWS V14.01,2013-07-11 13:30:00,
2013-07-11 09:35:00,68.9,61.0,29.99,NNW,347,2.0,3.0,76,0.00,,FEW027,0.00,VWS V14.01,2013-07-11 13:35:00,
2013-07-11 09:40:00,69.2,61.3,29.99,WSW,241,1.0,3.0,76,0.00,,FEW027,0.00,VWS V14.01,2013-07-11 13:40:00,
2013-07-11 09:45:00,69.4,61.1,29.99,WNW,288,0.0,7.0,75,0.00,,FEW027,0.00,VWS V14.01,2013-07-11 13:45:00,
2013-07-11 09:51:00,70.2,61.9,29.99,WSW,248,2.0,7.0,75,0.00,,FEW027,0.00,VWS V14.01,2013-07-11 13:51:00,
2013-07-11 09:56:00,70.5,61.0,30.00,SSW,194,1.0,7.0,72,0.00,,FEW027,0.00,VWS V14.01,2013-07-11 13:56:00,
2013-07-11 10:01:00,70.5,62.2,30.00,NW,316,2.0,9.0,75,0.00,,FEW027,0.00,VWS V14.01,2013-07-11 14:01:00,
2013-07-11 10:07:00,70.1,61.8,30.00,SW,224,1.0,7.0,75,0.00,,FEW027,0.00,VWS V14.01,2013-07-11 14:07:00,
2013-07-11 10:12:00,70.1,62.2,30.00,WSW,245,1.0,7.0,76,0.00,,FEW027,0.00,VWS V14.01,2013-07-11 14:12:00,
2013-07-11 10:17:00,70.2,61.2,30.00,NNE,33,4.0,7.0,73,0.00,,FEW027,0.00,VWS V14.01,2013-07-11 14:17:00,
2013-07-11 10:23:00,70.5,61.8,30.00,SE,128,2.0,7.0,74,0.00,,FEW027,0.00,VWS V14.01,2013-07-11 14:23:00,
2013-07-11 10:28:00,70.8,62.1,30.00,West,270,3.0,7.0,74,0.00,,FEW027,0.00,VWS V14.01,2013-07-11 14:28:00,
2013-07-11 10:33:00,70.8,61.3,30.00,WSW,245,1.0,1.0,72,0.00,,CLR,0.00,VWS V14.01,2013-07-11 14:33:00,
2013-07-11 10:38:00,71.1,61.6,30.00,West,270,3.0,6.0,72,0.00,,CLR,0.00,VWS V14.01,2013-07-11 14:38:00,
2013-07-11 10:43:00,71.1,61.6,30.00,West,280,1.0,6.0,72,0.00,,CLR,0.00,VWS V14.01,2013-07-11 14:43:00,
2013-07-11 10:51:00,71.1,62.8,30.00,NW,319,8.0,8.0,75,0.00,,CLR,0.00,VWS V14.01,2013-07-11 14:51:00,
2013-07-11 10:56:00,71.2,62.1,30.00,NNW,340,1.0,8.0,73,0.00,,CLR,0.00,VWS V14.01,2013-07-11 14:56:00,
2013-07-11 11:02:00,71.4,61.5,30.00,NW,314,4.0,8.0,71,0.00,,CLR,0.00,VWS V14.01,2013-07-11 15:02:00,
2013-07-11 11:07:00,71.6,63.3,30.00,West,269,2.0,5.0,75,0.00,,CLR,0.00,VWS V14.01,2013-07-11 15:07:00,
2013-07-11 11:12:00,72.0,62.5,30.00,WNW,286,2.0,5.0,72,0.00,,CLR,0.00,VWS V14.01,2013-07-11 15:12:00,
2013-07-11 11:17:00,71.8,62.3,30.00,WNW,283,2.0,5.0,72,0.00,,CLR,0.00,VWS V14.01,2013-07-11 15:17:00,
2013-07-11 11:22:00,71.9,63.5,30.00,WSW,248,2.0,5.0,75,0.00,,CLR,0.00,VWS V14.01,2013-07-11 15:22:00,
2013-07-11 11:28:00,72.2,62.3,30.00,North,1,3.0,5.0,71,0.00,,CLR,0.00,VWS V14.01,2013-07-11 15:28:00,
2013-07-11 11:33:00,72.2,61.5,30.00,West,269,2.0,2.0,69,0.00,,FEW028,0.00,VWS V14.01,2013-07-11 15:33:00,
2013-07-11 11:38:00,72.4,62.9,30.00,WSW,245,4.0,5.0,72,0.00,,FEW028,0.00,VWS V14.01,2013-07-11 15:38:00,
2013-07-11 11:43:00,72.3,61.2,30.00,NNE,16,3.0,7.0,68,0.00,,FEW028,0.00,VWS V14.01,2013-07-11 15:43:00,
2013-07-11 11:48:00,72.6,61.9,30.00,NW,318,3.0,7.0,69,0.00,,FEW028,0.00,VWS V14.01,2013-07-11 15:48:00,
2013-07-11 11:54:00,72.8,62.5,30.00,ENE,68,2.0,7.0,70,0.00,,FEW028,0.00,VWS V14.01,2013-07-11 15:54:00,
2013-07-11 11:59:00,72.2,61.1,30.00,SW,236,2.0,7.0,68,0.00,,FEW028,0.00,VWS V14.01,2013-07-11 15:59:00,
2013-07-11 12:05:00,71.7,61.4,30.00,ESE,104,2.0,3.0,70,0.00,,FEW028,0.00,VWS V14.01,2013-07-11 16:05:00,
2013-07-11 12:10:00,71.8,62.3,30.00,NW,314,2.0,3.0,72,0.00,,FEW028,0.00,VWS V14.01,2013-07-11 16:10:00,
2013-07-11 12:15:00,71.7,61.8,30.00,West,266,0.0,3.0,71,0.00,,FEW028,0.00,VWS V14.01,2013-07-11 16:15:00,
2013-07-11 12:20:00,71.2,60.9,30.01,NW,314,0.0,6.0,70,0.00,,FEW028,0.00,VWS V14.01,2013-07-11 16:20:00,
2013-07-11 12:25:00,71.2,61.7,30.00,WSW,248,1.0,6.0,72,0.00,,FEW028,0.00,VWS V14.01,2013-07-11 16:25:00,
2013-07-11 12:31:00,71.0,61.1,30.00,NW,313,0.0,6.0,71,0.00,,FEW028,0.00,VWS V14.01,2013-07-11 16:31:00,
2013-07-11 12:36:00,70.9,61.4,30.00,ENE,58,0.0,3.0,72,0.00,,SCT035,0.00,VWS V14.01,2013-07-11 16:36:00,
2013-07-11 12:41:00,71.7,62.6,30.00,NE,50,3.0,4.0,73,0.00,,SCT035,0.00,VWS V14.01,2013-07-11 16:41:00,
2013-07-11 12:46:00,72.5,62.2,30.00,West,274,1.0,5.0,70,0.00,,SCT035,0.00,VWS V14.01,2013-07-11 16:46:00,
2013-07-11 12:51:00,72.6,62.3,30.00,WSW,250,1.0,5.0,70,0.00,,SCT035,0.00,VWS V14.01,2013-07-11 16:51:00,
2013-07-11 12:57:00,73.0,62.7,30.00,NNE,14,1.0,6.0,70,0.00,,SCT035,0.00,VWS V14.01,2013-07-11 16:57:00,
2013-07-11 13:02:00,73.5,61.5,30.00,NNW,343,1.0,6.0,66,0.00,,SCT035,0.00,VWS V14.01,2013-07-11 17:02:00,
2013-07-11 13:07:00,73.7,63.3,30.00,NNW,340,0.0,3.0,70,0.00,,SCT035,0.00,VWS V14.01,2013-07-11 17:07:00,
2013-07-11 13:13:00,73.9,62.7,30.00,NE,35,1.0,3.0,68,0.00,,SCT035,0.00,VWS V14.01,2013-07-11 17:13:00,
2013-07-11 13:18:00,73.9,61.8,30.00,WNW,302,1.0,5.0,66,0.00,,SCT035,0.00,VWS V14.01,2013-07-11 17:18:00,
2013-07-11 13:23:00,74.2,63.8,30.00,WNW,284,2.0,5.0,70,0.00,,SCT035,0.00,VWS V14.01,2013-07-11 17:23:00,
2013-07-11 13:28:00,74.4,63.6,30.00,NE,40,3.0,5.0,69,0.00,,SCT035,0.00,VWS V14.01,2013-07-11 17:28:00,
2013-07-11 13:34:00,74.4,62.7,30.00,West,278,0.0,2.0,67,0.00,,BKN060,0.00,VWS V14.01,2013-07-11 17:34:00,
2013-07-11 13:39:00,74.2,61.7,29.99,WNW,293,1.0,4.0,65,0.00,,BKN060,0.00,VWS V14.01,2013-07-11 17:39:00,
2013-07-11 13:44:00,73.9,61.4,30.00,NW,304,1.0,5.0,65,0.00,,BKN060,0.00,VWS V14.01,2013-07-11 17:44:00,
2013-07-11 13:49:00,73.8,62.2,30.00,WNW,283,0.0,5.0,67,0.00,,BKN060,0.00,VWS V14.01,2013-07-11 17:49:00,
2013-07-11 13:54:00,74.0,61.9,30.00,NW,316,1.0,5.0,66,0.00,,BKN060,0.00,VWS V14.01,2013-07-11 17:54:00,
2013-07-11 13:59:00,73.7,62.5,29.99,SE,134,0.0,5.0,68,0.00,,BKN060,0.00,VWS V14.01,2013-07-11 17:59:00,
2013-07-11 14:05:00,73.9,62.7,29.99,ESE,109,2.0,3.0,68,0.00,,BKN060,0.00,VWS V14.01,2013-07-11 18:05:00,
2013-07-11 14:10:00,73.3,62.1,30.00,North,354,1.0,4.0,68,0.00,,BKN060,0.00,VWS V14.01,2013-07-11 18:10:00,
2013-07-11 14:16:00,73.1,61.1,29.99,NNW,338,0.0,4.0,66,0.00,,BKN060,0.00,VWS V14.01,2013-07-11 18:16:00,
2013-07-11 14:21:00,73.2,61.6,29.99,West,277,2.0,4.0,67,0.00,,BKN060,0.00,VWS V14.01,2013-07-11 18:21:00,
2013-07-11 14:27:00,73.5,63.1,29.99,West,271,1.0,5.0,70,0.00,,BKN060,0.00,VWS V14.01,2013-07-11 18:27:00,
2013-07-11 14:32:00,73.9,62.3,29.99,West,271,1.0,6.0,67,0.00,,BKN060,0.00,VWS V14.01,2013-07-11 18:32:00,
2013-07-11 14:37:00,74.2,62.1,29.99,NNW,340,1.0,3.0,66,0.00,,SCT060,0.00,VWS V14.01,2013-07-11 18:37:00,
2013-07-11 14:42:00,74.2,62.5,30.00,WSW,248,2.0,3.0,67,0.00,,SCT060,0.00,VWS V14.01,2013-07-11 18:42:00,
2013-07-11 14:47:00,73.7,62.1,30.00,WSW,248,0.0,3.0,67,0.00,,SCT060,0.00,VWS V14.01,2013-07-11 18:47:00,
2013-07-11 14:52:00,73.7,63.7,30.00,West,267,1.0,3.0,71,0.00,,SCT060,0.00,VWS V14.01,2013-07-11 18:52:00,
2013-07-11 14:57:00,74.0,62.4,30.00,NNE,16,3.0,4.0,67,0.00,,SCT060,0.00,VWS V14.01,2013-07-11 18:57:00,
2013-07-11 15:02:00,74.1,62.9,30.00,North,355,3.0,4.0,68,0.00,,SCT060,0.00,VWS V14.01,2013-07-11 19:02:00,
2013-07-11 15:08:00,73.8,62.2,30.00,WSW,255,1.0,3.0,67,0.00,,SCT060,0.00,VWS V14.01,2013-07-11 19:08:00,
2013-07-11 15:13:00,73.4,63.0,30.00,NW,316,3.0,4.0,70,0.00,,SCT060,0.00,VWS V14.01,2013-07-11 19:13:00,
2013-07-11 15:18:00,73.2,62.0,30.00,WSW,241,2.0,4.0,68,0.00,,SCT060,0.00,VWS V14.01,2013-07-11 19:18:00,
2013-07-11 15:23:00,73.8,62.6,30.00,NNE,15,0.0,4.0,68,0.00,,SCT060,0.00,VWS V14.01,2013-07-11 19:23:00,
2013-07-11 15:28:00,74.3,63.5,30.00,SSE,152,0.0,4.0,69,0.00,,SCT060,0.00,VWS V14.01,2013-07-11 19:28:00,
2013-07-11 15:34:00,74.1,62.5,30.00,South,174,0.0,0.0,67,0.00,,SCT065,0.00,VWS V14.01,2013-07-11 19:34:00,
2013-07-11 15:39:00,73.9,62.7,30.00,NW,319,0.0,2.0,68,0.00,,SCT065,0.00,VWS V14.01,2013-07-11 19:39:00,
2013-07-11 15:44:00,74.0,62.8,30.00,NW,310,0.0,2.0,68,0.00,,SCT065,0.00,VWS V14.01,2013-07-11 19:44:00,
2013-07-11 15:49:00,74.2,62.5,30.00,WNW,286,0.0,3.0,67,0.00,,SCT065,0.00,VWS V14.01,2013-07-11 19:49:00,
2013-07-11 15:55:00,74.4,62.3,30.00,NW,316,0.0,6.0,66,0.00,,SCT065,0.00,VWS V14.01,2013-07-11 19:55:00,
2013-07-11 16:00:00,74.2,61.7,30.00,WSW,256,1.0,6.0,65,0.00,,SCT065,0.00,VWS V14.01,2013-07-11 20:00:00,
2013-07-11 16:05:00,74.5,62.8,30.00,NW,322,1.0,2.0,67,0.00,,SCT065,0.00,VWS V14.01,2013-07-11 20:05:00,
2013-07-11 16:10:00,74.4,61.4,30.00,North,6,1.0,3.0,64,0.00,,SCT065,0.00,VWS V14.01,2013-07-11 20:10:00,
2013-07-11 16:15:00,74.7,63.9,30.00,NW,324,1.0,3.0,69,0.00,,SCT065,0.00,VWS V14.01,2013-07-11 20:15:00,
2013-07-11 16:21:00,74.4,61.9,30.00,North,358,2.0,4.0,65,0.00,,SCT065,0.00,VWS V14.01,2013-07-11 20:21:00,
2013-07-11 16:26:00,74.2,62.5,30.00,West,277,0.0,4.0,67,0.00,,SCT065,0.00,VWS V14.01,2013-07-11 20:26:00,
2013-07-11 16:31:00,74.0,63.2,30.00,WNW,288,1.0,4.0,69,0.00,,SCT065,0.00,VWS V14.01,2013-07-11 20:31:00,
2013-07-11 16:36:00,74.2,63.8,30.00,SW,232,0.0,1.0,70,0.00,,BKN075,0.00,VWS V14.01,2013-07-11 20:36:00,
2013-07-11 16:41:00,74.5,63.3,30.00,NW,323,1.0,3.0,68,0.00,,BKN075,0.00,VWS V14.01,2013-07-11 20:41:00,
2013-07-11 16:46:00,74.5,62.4,30.00,East,99,0.0,3.0,66,0.00,,BKN075,0.00,VWS V14.01,2013-07-11 20:46:00,
2013-07-11 16:51:00,74.7,62.2,30.00,East,96,0.0,3.0,65,0.00,,BKN075,0.00,VWS V14.01,2013-07-11 20:51:00,
2013-07-11 16:56:00,74.9,63.2,30.00,NW,314,1.0,3.0,67,0.00,,BKN075,0.00,VWS V14.01,2013-07-11 20:56:00,
2013-07-11 17:02:00,74.7,62.2,30.00,ESE,118,0.0,4.0,65,0.00,,BKN075,0.00,VWS V14.01,2013-07-11 21:02:00,
2013-07-11 17:07:00,74.4,61.9,30.00,NW,311,0.0,2.0,65,0.00,,BKN075,0.00,VWS V14.01,2013-07-11 21:07:00,
2013-07-11 17:12:00,74.4,62.7,30.00,NW,326,3.0,3.0,67,0.00,,BKN075,0.00,VWS V14.01,2013-07-11 21:12:00,
2013-07-11 17:17:00,74.4,62.7,29.99,North,6,2.0,3.0,67,0.00,,BKN075,0.00,VWS V14.01,2013-07-11 21:17:00,
2013-07-11 17:23:00,74.6,63.3,30.00,WSW,241,1.0,3.0,68,0.00,,BKN075,0.00,VWS V14.01,2013-07-11 21:23:00,
2013-07-11 17:28:00,74.7,62.2,29.99,SE,145,1.0,3.0,65,0.00,,BKN075,0.00,VWS V14.01,2013-07-11 21:28:00,
2013-07-11 17:33:00,74.6,62.5,29.99,NNW,333,2.0,3.0,66,0.00,,OVC070,0.00,VWS V14.01,2013-07-11 21:33:00,
2013-07-11 17:38:00,74.5,62.8,29.99,WNW,293,0.0,4.0,67,0.00,,OVC070,0.00,VWS V14.01,2013-07-11 21:38:00,
2013-07-11 17:43:00,74.3,62.2,29.99,NW,309,1.0,4.0,66,0.00,,OVC070,0.00,VWS V14.01,2013-07-11 21:43:00,
2013-07-11 17:49:00,74.2,63.0,30.00,East,101,0.0,4.0,68,0.00,,OVC070,0.00,VWS V14.01,2013-07-11 21:49:00,
2013-07-11 17:55:00,74.3,63.5,30.00,NW,310,1.0,4.0,69,0.00,,OVC070,0.00,VWS V14.01,2013-07-11 21:55:00,
2013-07-11 18:00:00,74.1,62.5,30.00,NNE,32,0.0,5.0,67,0.00,,OVC070,0.00,VWS V14.01,2013-07-11 22:00:00,
2013-07-11 18:05:00,73.9,62.7,30.00,North,9,3.0,4.0,68,0.00,,OVC070,0.00,VWS V14.01,2013-07-11 22:05:00,
2013-07-11 18:10:00,73.9,63.1,30.00,WNW,301,0.0,4.0,69,0.00,,OVC070,0.00,VWS V14.01,2013-07-11 22:10:00,
2013-07-11 18:16:00,73.9,62.7,30.00,WNW,286,1.0,4.0,68,0.00,,OVC070,0.00,VWS V14.01,2013-07-11 22:16:00,
2013-07-11 18:21:00,73.9,62.7,30.00,NW,322,0.0,4.0,68,0.00,,OVC070,0.00,VWS V14.01,2013-07-11 22:21:00,
2013-07-11 18:26:00,73.7,62.5,30.00,West,281,2.0,4.0,68,0.00,,OVC070,0.00,VWS V14.01,2013-07-11 22:26:00,
2013-07-11 18:31:00,73.5,62.3,30.01,SE,134,0.0,4.0,68,0.00,,OVC070,0.00,VWS V14.01,2013-07-11 22:31:00,
2013-07-11 18:36:00,73.7,62.5,30.01,North,354,0.0,2.0,68,0.00,,BKN060,0.00,VWS V14.01,2013-07-11 22:36:00,
2013-07-11 18:41:00,73.9,62.7,30.01,NNW,340,0.0,2.0,68,0.00,,BKN060,0.00,VWS V14.01,2013-07-11 22:41:00,
2013-07-11 18:47:00,74.0,62.8,30.01,NE,56,1.0,2.0,68,0.00,,BKN060,0.00,VWS V14.01,2013-07-11 22:47:00,
2013-07-11 18:52:00,73.8,62.6,30.01,SSW,201,0.0,3.0,68,0.00,,BKN060,0.00,VWS V14.01,2013-07-11 22:52:00,
2013-07-11 18:57:00,74.1,62.9,30.01,NW,305,1.0,3.0,68,0.00,,BKN060,0.00,VWS V14.01,2013-07-11 22:57:00,
2013-07-11 19:02:00,74.4,62.3,30.01,East,80,0.0,3.0,66,0.00,,BKN060,0.00,VWS V14.01,2013-07-11 23:02:00,
2013-07-11 19:07:00,74.4,61.9,30.02,SE,139,0.0,2.0,65,0.00,,BKN060,0.00,VWS V14.01,2013-07-11 23:07:00,
2013-07-11 19:12:00,74.0,62.8,30.02,West,278,1.0,2.0,68,0.00,,BKN060,0.00,VWS V14.01,2013-07-11 23:12:00,
2013-07-11 19:18:00,73.3,60.8,30.02,West,278,0.0,3.0,65,0.00,,BKN060,0.00,VWS V14.01,2013-07-11 23:18:00,
2013-07-11 19:23:00,73.0,61.0,30.02,WSW,252,0.0,3.0,66,0.00,,BKN060,0.00,VWS V14.01,2013-07-11 23:23:00,
2013-07-11 19:29:00,72.6,61.0,30.02,WSW,253,0.0,3.0,67,0.00,,BKN060,0.00,VWS V14.01,2013-07-11 23:29:00,
2013-07-11 19:34:00,72.3,61.6,30.02,WSW,253,0.0,0.0,69,0.00,,CLR,0.00,VWS V14.01,2013-07-11 23:34:00,
2013-07-11 19:39:00,71.6,61.7,30.02,North,11,1.0,1.0,71,0.00,,CLR,0.00,VWS V14.01,2013-07-11 23:39:00,
2013-07-11 19:44:00,70.9,61.8,30.02,North,11,0.0,1.0,73,0.00,,CLR,0.00,VWS V14.01,2013-07-11 23:44:00,
2013-07-11 19:50:00,70.1,62.2,30.02,NNE,12,0.0,1.0,76,0.00,,CLR,0.00,VWS V14.01,2013-07-11 23:50:00,
2013-07-11 19:55:00,69.4,61.9,30.03,North,11,0.0,1.0,77,0.00,,CLR,0.00,VWS V14.01,2013-07-11 23:55:00,
2013-07-11 20:01:00,68.9,61.8,30.03,NNE,12,0.0,1.0,78,0.00,,CLR,0.00,VWS V14.01,2013-07-12 00:01:00,
2013-07-11 20:06:00,68.5,61.7,30.03,NNE,12,0.0,1.0,79,0.00,,CLR,0.00,VWS V14.01,2013-07-12 00:06:00,
2013-07-11 20:11:00,68.1,62.1,30.03,NNE,12,0.0,1.0,81,0.00,,CLR,0.00,VWS V14.01,2013-07-12 00:11:00,
2013-07-11 20:16:00,67.7,61.7,30.03,NNE,12,0.0,1.0,81,0.00,,CLR,0.00,VWS V14.01,2013-07-12 00:16:00,
2013-07-11 20:21:00,67.3,60.9,30.04,WSW,253,0.0,1.0,80,0.00,,CLR,0.00,VWS V14.01,2013-07-12 00:21:00,
2013-07-11 20:27:00,67.3,61.3,30.04,West,274,0.0,1.0,81,0.00,,CLR,0.00,VWS V14.01,2013-07-12 00:27:00,
2013-07-11 20:32:00,67.3,61.3,30.04,North,8,0.0,1.0,81,0.00,,CLR,0.00,VWS V14.01,2013-07-12 00:32:00,
2013-07-11 20:37:00,67.2,61.5,30.04,North,6,0.0,1.0,82,0.00,,CLR,0.00,VWS V14.01,2013-07-12 00:37:00,
2013-07-11 20:42:00,66.9,61.6,30.04,North,8,0.0,1.0,83,0.00,,CLR,0.00,VWS V14.01,2013-07-12 00:42:00,
2013-07-11 20:47:00,66.6,61.6,30.04,North,8,0.0,1.0,84,0.00,,CLR,0.00,VWS V14.01,2013-07-12 00:47:00,
2013-07-11 20:52:00,66.2,61.6,30.04,North,8,0.0,1.0,85,0.00,,CLR,0.00,VWS V14.01,2013-07-12 00:52:00,
2013-07-11 20:58:00,65.8,61.5,30.04,North,8,0.0,1.0,86,0.00,,CLR,0.00,VWS V14.01,2013-07-12 00:58:00,
2013-07-11 21:03:00,65.6,61.6,30.05,North,8,0.0,0.0,87,0.00,,CLR,0.00,VWS V14.01,2013-07-12 01:03:00,
2013-07-11 21:08:00,65.4,61.4,30.05,North,8,0.0,0.0,87,0.00,,CLR,0.00,VWS V14.01,2013-07-12 01:08:00,
2013-07-11 21:13:00,65.1,61.1,30.05,North,8,0.0,0.0,87,0.00,,CLR,0.00,VWS V14.01,2013-07-12 01:13:00,
2013-07-11 21:18:00,64.9,60.9,30.05,North,8,0.0,0.0,87,0.00,,CLR,0.00,VWS V14.01,2013-07-12 01:18:00,
2013-07-11 21:24:00,64.9,61.3,30.05,North,6,0.0,0.0,88,0.00,,CLR,0.00,VWS V14.01,2013-07-12 01:24:00,
2013-07-11 21:30:00,65.0,61.4,30.05,WSW,242,0.0,2.0,88,0.00,,CLR,0.00,VWS V14.01,2013-07-12 01:30:00,
2013-07-11 21:36:00,65.0,61.4,30.05,WSW,247,0.0,0.0,88,0.00,,CLR,0.00,VWS V14.01,2013-07-12 01:36:00,
2013-07-11 21:41:00,65.0,61.7,30.05,WSW,248,0.0,0.0,89,0.00,,CLR,0.00,VWS V14.01,2013-07-12 01:41:00,
2013-07-11 21:46:00,64.9,61.6,30.06,West,264,0.0,0.0,89,0.00,,CLR,0.00,VWS V14.01,2013-07-12 01:46:00,
2013-07-11 21:52:00,64.8,61.8,30.06,West,264,0.0,0.0,90,0.00,,CLR,0.00,VWS V14.01,2013-07-12 01:52:00,
2013-07-11 21:57:00,64.7,61.7,30.06,SW,231,0.0,0.0,90,0.00,,CLR,0.00,VWS V14.01,2013-07-12 01:57:00,
2013-07-11 22:03:00,64.7,61.7,30.06,WSW,250,0.0,0.0,90,0.00,,CLR,0.00,VWS V14.01,2013-07-12 02:03:00,
2013-07-11 22:08:00,64.7,61.7,30.06,WNW,285,0.0,0.0,90,0.00,,CLR,0.00,VWS V14.01,2013-07-12 02:08:00,
2013-07-11 22:13:00,64.7,61.7,30.06,WNW,285,0.0,0.0,90,0.00,,CLR,0.00,VWS V14.01,2013-07-12 02:13:00,
2013-07-11 22:18:00,64.4,61.4,30.06,WNW,285,0.0,0.0,90,0.00,,CLR,0.00,VWS V14.01,2013-07-12 02:18:00,
2013-07-11 22:23:00,64.0,61.0,30.06,WNW,285,0.0,0.0,90,0.00,,CLR,0.00,VWS V14.01,2013-07-12 02:23:00,
2013-07-11 22:28:00,63.7,61.0,30.06,WNW,285,0.0,0.0,91,0.00,,CLR,0.00,VWS V14.01,2013-07-12 02:28:00,
2013-07-11 22:33:00,63.5,61.1,30.06,WNW,285,0.0,0.0,92,0.00,,CLR,0.00,VWS V14.01,2013-07-12 02:33:00,
2013-07-11 22:38:00,63.2,60.8,30.06,WNW,285,0.0,0.0,92,0.00,,CLR,0.00,VWS V14.01,2013-07-12 02:38:00,
2013-07-11 22:44:00,63.0,60.6,30.06,WNW,285,0.0,0.0,92,0.00,,CLR,0.00,VWS V14.01,2013-07-12 02:44:00,
2013-07-11 22:49:00,62.9,60.8,30.06,WNW,285,0.0,0.0,93,0.00,,CLR,0.00,VWS V14.01,2013-07-12 02:49:00,
2013-07-11 22:54:00,62.6,60.5,30.06,WNW,285,0.0,0.0,93,0.00,,CLR,0.00,VWS V14.01,2013-07-12 02:54:00,
2013-07-11 23:00:00,62.4,60.3,30.06,WNW,285,0.0,0.0,93,0.00,,CLR,0.00,VWS V14.01,2013-07-12 03:00:00,
2013-07-11 23:06:00,62.3,60.6,30.06,WNW,285,0.0,0.0,94,0.00,,CLR,0.00,VWS V14.01,2013-07-12 03:06:00,
2013-07-11 23:11:00,62.2,60.5,30.06,WNW,285,0.0,0.0,94,0.00,,CLR,0.00,VWS V14.01,2013-07-12 03:11:00,
2013-07-11 23:16:00,62.2,60.5,30.06,WNW,285,0.0,0.0,94,0.00,,CLR,0.00,VWS V14.01,2013-07-12 03:16:00,
2013-07-11 23:21:00,62.1,60.4,30.06,WNW,285,0.0,0.0,94,0.00,,CLR,0.00,VWS V14.01,2013-07-12 03:21:00,
2013-07-11 23:27:00,61.9,60.2,30.06,WNW,285,0.0,0.0,94,0.00,,CLR,0.00,VWS V14.01,2013-07-12 03:27:00,
2013-07-11 23:32:00,61.7,60.0,30.06,WNW,285,0.0,0.0,94,0.00,,CLR,0.00,VWS V14.01,2013-07-12 03:32:00,
2013-07-11 23:37:00,61.6,59.9,30.06,WNW,285,0.0,0.0,94,0.00,,CLR,0.00,VWS V14.01,2013-07-12 03:37:00,
2013-07-11 23:43:00,61.3,59.9,30.07,WNW,285,0.0,0.0,95,0.00,,CLR,0.00,VWS V14.01,2013-07-12 03:43:00,
2013-07-11 23:48:00,61.2,59.8,30.06,WNW,285,0.0,0.0,95,0.00,,CLR,0.00,VWS V14.01,2013-07-12 03:48:00,
2013-07-11 23:53:00,61.2,59.8,30.07,WNW,285,0.0,0.0,95,0.00,,CLR,0.00,VWS V14.01,2013-07-12 03:53:00,
2013-07-11 23:58:00,61.1,59.7,30.07,WNW,285,0.0,0.0,95,0.00,,CLR,0.00,VWS V14.01,2013-07-12 03:58:00,